Probability
0 2 6 7 8 10 9 7 6 5 3 1 0 0 0 0 0 0 0 0 0 0 0 0 0 0 1 1 1 1 3 3 2 1 0 0 0 0 0 0 0 0 0
0 2 5 7 9 12 11 9 8 7 5 2 1 0 0 0 0 0 0 0 0 0 0 0 0 0 0 0 1 1 2 2 1 0 0 0 0 0 0 0 0 0 0
1 2 4 7 10 13 14 12 10 9 7 4 1 0 0 0 0 0 0 0 0 0 0 0 1 1 1 0 0 1 1 1 0 0 0 0 0 0 0 0 0 0 0
1 2 5 8 10 13 16 15 12 10 8 6 4 1 0 0 1 1 0 0 0 0 0 1 2 2 2 1 0 0 0 0 0 0 0 0 0 0 0 0 0 0 0
1 2 6 9 11 13 16 16 14 11 9 8 6 2 0 0 1 1 0 0 0 0 0 1 2 3 3 2 1 0 0 0 0 0 0 0 0 0 0 0 0 0 0
1 2 6 10 12 13 15 15 14 12 10 9 7 3 0 0 1 1 0 1 1 1 1 0 1 3 3 3 2 1 0 0 0 0 0 0 0 0 0 0 0 0 0
1 2 5 9 11 13 14 14 13 12 10 8 6 4 1 0 0 0 1 1 2 2 1 0 1 2 3 3 2 1 0 0 0 0 0 0 0 0 0 0 0 0 0
2 3 4 6 9 12 13 13 13 12 10 7 7 6 4 1 0 1 2 2 2 1 1 0 1 2 3 3 2 1 0 0 0 0 0 0 0 0 0 0 0 0 0
4 4 4 4 6 9 11 12 13 13 11 8 7 6 5 2 0 1 2 3 2 1 0 0 1 2 3 3 2 1 0 0 0 0 0 0 0 0 0 0 0 0 0
6 6 5 4 5 7 8 10 11 12 11 9 7 5 3 1 1 1 2 2 2 1 1 1 2 3 4 3 2 1 0 0 0 0 0 0 0 0 0 0 0 0 0
6 6 6 6 6 8 8 9 10 11 10 8 6 4 2 1 2 1 1 2 1 1 2 3 3 3 3 2 1 0 0 0 0 0 0 0 0 0 0 0 0 0 0
6 6 6 6 7 9 9 9 9 10 9 7 5 4 4 4 4 3 3 3 2 1 2 3 3 3 1 1 0 0 0 0 0 0 0 0 0 0 0 0 0 0 0
4 5 6 6 7 9 10 10 10 10 9 8 6 6 6 6 5 5 6 6 5 3 3 4 4 2 1 0 0 0 0 0 0 0 0 0 0 0 0 0 0 0 0
2 3 5 6 7 8 9 10 10 9 9 9 8 7 6 5 5 6 7 8 8 7 7 5 4 2 0 0 0 0 0 0 0 0 0 0 0 0 0 0 0 0 1
0 1 3 4 6 7 8 9 9 8 8 8 8 7 5 4 4 5 6 8 9 9 8 6 4 2 1 1 0 0 0 0 0 0 0 0 0 0 0 0 0 1 2
0 1 2 3 4 6 7 7 7 7 7 7 7 6 4 3 3 4 5 6 7 7 7 5 4 3 3 2 1 0 0 0 0 0 0 0 0 0 0 0 0 1 3
0 1 2 3 4 5 6 6 6 6 6 6 6 4 3 3 3 3 3 4 5 6 6 6 4 3 3 3 1 0 0 0 0 0 0 0 0 0 0 0 0 1 3
0 0 1 3 3 4 5 6 6 6 6 6 6 4 3 3 3 3 3 3 4 5 6 5 4 3 3 3 2 1 0 0 0 0 0 0 0 0 0 0 0 1 2
0 0 1 2 3 3 4 5 6 6 6 6 6 4 3 3 3 3 3 3 3 4 5 4 3 3 3 3 2 1 0 0 0 0 0 0 0 0 0 0 0 0 1
0 0 0 1 3 3 3 4 5 6 6 6 6 4 3 3 3 3 3 3 3 3 4 3 3 3 3 3 2 0 0 0 0 0 0 0 0 0 0 0 0 0 0
0 0 0 1 2 3 3 3 4 5 6 6 5 4 3 3 3 3 3 3 3 3 3 3 3 3 3 3 2 1 0 0 0 0 0 0 0 0 0 0 0 0 0
0 0 0 1 2 3 3 3 3 4 4 5 4 3 3 3 3 3 3 3 4 4 3 3 3 3 3 3 3 1 0 0 0 0 0 0 0 0 0 0 0 0 0
0 0 0 1 2 3 3 3 3 3 3 3 2 2 2 2 3 3 3 4 4 4 4 3 3 3 3 3 3 2 1 0 0 0 0 0 0 0 0 0 0 0 0
0 0 0 0 1 3 3 3 3 3 3 2 1 1 1 2 3 3 3 3 4 4 3 3 3 3 3 3 3 2 1 0 0 0 0 0 0 0 0 0 0 0 0
0 0 0 0 1 2 3 3 3 3 3 2 1 0 0 2 3 3 3 3 4 3 3 3 3 3 3 3 3 2 1 0 0 0 0 0 0 0 0 0 0 0 0
0 0 0 0 0 1 3 3 3 3 3 2 1 0 1 2 3 3 3 4 4 4 3 3 3 3 3 3 3 2 1 0 0 0 0 0 0 0 0 0 0 0 0
Wind_Speed
2 2 1 1 2 5 7 8 8 8 8 9 8 9 9 9 9 9 9 9 9 10 10 11 12 12 12 12 13 13 13 13 13 13 12 12 12 13 12 10 9 11 13
1 2 1 1 3 5 7 7 8 8 8 8 8 8 9 9 9 9 9 9 9 10 11 11 12 12 12 12 12 12 13 13 12 11 10 10 11 12 12 11 10 10 13
1 2 3 2 4 5 7 8 8 8 8 8 8 8 8 8 9 9 9 9 9 10 10 11 11 12 11 11 11 11 12 12 10 8 6 8 10 11 12 12 12 13 13
1 2 3 3 5 6 7 8 8 8 8 8 8 8 8 8 9 9 9 9 9 9 10 10 11 11 11 11 11 11 11 10 8 5 6 8 8 11 12 12 13 13 13
2 2 2 3 5 6 7 8 8 8 8 8 8 8 8 8 9 9 9 9 9 9 10 10 10 11 10 10 10 10 10 9 6 6 8 8 8 11 11 12 12 13 13
2 2 3 3 5 6 6 7 7 8 8 8 8 8 8 8 9 9 9 9 9 9 9 10 10 10 10 10 10 10 10 7 5 7 7 7 7 10 11 11 11 12 12
2 2 2 3 4 5 6 7 7 7 7 7 7 8 8 8 9 9 9 9 9 10 10 9 9 10 10 10 10 10 9 6 6 6 6 6 8 10 10 10 11 11 11
2 2 2 2 3 5 5 6 6 7 7 7 7 7 8 8 8 8 8 8 8 9 10 9 9 9 9 9 10 9 8 5 5 6 6 7 9 10 10 10 10 10 10
2 2 1 1 2 4 4 5 5 6 6 6 6 7 7 8 7 8 8 8 8 9 9 9 9 8 9 9 9 8 7 4 5 5 5 5 8 9 9 9 9 10 10
2 2 1 1 2 2 3 5 5 6 6 6 6 6 6 6 7 7 6 7 7 8 9 9 9 8 8 8 8 7 5 2 5 5 4 5 7 8 9 9 8 9 9
2 2 2 1 1 1 2 3 4 4 5 4 4 5 4 3 4 4 6 6 7 8 8 8 8 8 7 7 7 5 2 2 4 3 3 5 7 7 8 8 8 8 9
1 1 2 1 1 1 1 2 2 2 2 2 2 3 2 2 2 3 5 6 6 7 7 8 7 6 3 3 4 2 2 3 3 3 4 6 6 7 7 7 7 8 8
1 1 1 1 0 1 1 1 1 1 1 2 2 2 2 2 2 2 2 2 3 3 3 4 4 2 2 2 2 2 2 2 2 2 3 5 5 6 6 6 6 7 7
2 1 1 1 1 0 1 1 1 1 1 1 1 2 1 1 1 1 1 1 1 1 1 2 2 2 2 2 2 2 2 2 1 2 3 5 5 5 5 5 6 6 6
2 2 1 1 0 1 1 1 1 1 1 1 1 1 1 1 1 1 1 1 1 1 1 1 2 2 2 2 2 2 2 2 2 2 2 6 5 5 5 5 5 6 5
2 3 2 1 1 1 1 1 1 1 1 1 1 1 1 1 1 1 1 1 1 1 1 1 2 2 2 2 2 2 2 2 2 2 1 3 6 5 5 4 4 5 5
2 3 2 2 1 1 1 1 1 1 1 1 1 1 1 1 1 1 1 1 1 1 1 1 2 2 2 2 2 2 1 1 1 2 1 1 2 5 5 4 4 3 4
2 2 2 1 1 1 1 1 1 2 1 1 1 1 1 1 1 2 1 1 1 1 1 1 1 2 2 2 1 1 1 1 1 1 1 1 1 1 3 5 4 3 3
2 1 2 1 2 2 1 2 2 2 2 1 1 1 1 1 1 2 1 1 1 1 1 2 2 2 2 2 1 1 1 1 1 1 1 1 1 1 1 3 4 4 2
1 1 1 1 1 1 1 2 2 2 2 1 1 1 1 1 1 1 1 1 2 2 1 2 2 2 2 2 2 1 1 0 0 1 0 0 0 0 0 0 0 1 2
1 1 1 1 2 2 1 2 2 2 2 1 1 1 1 2 1 1 1 1 1 2 2 2 3 3 2 2 2 1 1 0 0 0 0 0 1 0 0 0 0 0 0
1 1 1 2 2 3 2 2 1 2 2 1 1 1 1 2 2 2 2 2 2 2 2 2 2 3 2 2 2 2 2 1 1 1 1 1 1 1 1 0 1 1 1
2 2 2 2 3 3 2 1 2 2 2 2 2 1 1 2 2 2 3 2 2 2 2 2 2 3 3 2 2 2 3 2 1 1 1 1 1 1 1 1 1 1 1
3 2 3 3 3 3 3 3 4 3 3 2 2 1 1 2 2 3 3 3 3 2 2 3 3 2 3 3 2 1 2 0 2 2 2 1 2 2 2 1 1 2 2
3 2 3 3 3 3 3 4 4 4 3 2 3 3 2 2 3 3 3 3 3 2 3 3 3 3 3 3 3 2 2 1 2 2 2 2 2 2 2 2 2 2 2
2 2 3 3 3 3 3 4 4 5 4 4 4 4 3 2 3 3 3 3 3 3 3 3 3 4 4 4 3 3 3 3 3 2 3 3 3 2 2 2 2 2 2
Wind_Direction
173 203 238 223 121 120 117 114 115 118 111 107 107 110 105 102 100 96 93 89 87 90 91 90 88 87 85 84 82 79 76 74 74 74 73 76 79 81 80 79 86 89 89
178 195 182 161 117 121 122 118 116 115 112 109 107 106 104 100 99 97 94 91 90 90 89 90 88 88 86 84 82 81 79 77 74 72 74 80 78 78 80 76 75 87 90
139 167 166 139 114 114 120 118 114 111 110 110 108 105 103 100 98 94 93 91 90 90 89 89 88 88 87 86 83 82 81 79 74 70 80 87 85 81 87 86 85 90 92
136 160 161 115 112 110 116 116 114 112 108 107 108 106 103 101 100 94 90 89 90 90 89 88 87 88 87 86 86 84 82 78 71 68 83 81 84 83 89 90 91 92 93
122 145 137 99 113 111 110 115 113 111 108 105 105 104 103 100 98 94 89 89 91 91 90 88 87 88 89 88 88 86 83 78 70 79 82 81 81 82 87 90 92 95 95
103 127 126 93 106 110 111 110 113 112 110 107 105 102 100 99 95 92 87 87 91 92 92 92 92 89 88 89 90 87 82 77 89 84 83 84 85 85 87 88 91 95 97
86 96 116 99 103 103 106 111 108 111 111 108 105 103 100 96 95 92 87 86 89 91 89 91 94 93 89 88 88 85 78 62 82 86 84 83 84 83 84 89 91 93 96
80 84 102 103 107 101 99 104 110 108 108 109 109 107 102 94 89 90 88 89 90 92 92 90 92 93 91 88 86 81 71 64 90 88 86 83 76 82 83 85 90 92 95
72 79 92 120 139 117 101 92 97 103 100 97 101 100 97 93 88 86 87 89 91 93 95 90 84 91 93 90 85 78 68 49 89 90 87 83 77 83 84 82 85 88 92
57 55 50 80 141 140 127 97 88 87 89 89 90 92 93 93 91 85 85 87 92 93 93 90 83 82 90 91 85 75 66 75 87 87 85 84 81 87 88 87 86 87 92
47 45 45 62 92 125 128 111 105 92 84 93 99 93 104 118 111 100 83 76 84 91 92 91 86 81 86 93 82 73 80 88 90 81 79 74 85 90 91 92 94 93 94
341 24 28 22 83 112 110 125 134 129 121 120 113 115 126 120 103 99 89 76 76 85 94 92 89 89 92 101 96 101 100 90 86 82 74 68 83 91 93 95 99 101 99
295 10 1 335 20 120 122 121 133 125 129 130 115 110 129 131 123 113 120 105 98 91 100 104 99 91 93 89 98 94 83 86 79 79 70 64 82 93 97 101 106 108 105
334 334 334 320 320 147 138 131 128 135 139 122 123 114 131 133 134 124 123 115 119 106 99 106 101 95 103 105 103 94 84 71 65 69 61 52 67 83 95 100 104 105 106
308 317 306 299 273 246 171 153 139 125 132 131 125 127 131 144 147 147 133 126 128 120 137 123 121 114 113 105 93 84 75 72 71 72 78 53 52 70 84 97 101 103 111
287 304 284 264 235 220 195 167 147 139 126 136 130 129 164 160 148 143 156 142 133 143 161 147 127 124 121 111 99 84 73 68 69 65 65 68 54 56 66 83 107 112 111
277 292 266 236 212 194 160 154 127 110 112 111 143 160 171 166 167 165 170 160 152 163 156 134 126 121 121 113 94 74 66 51 61 61 51 45 58 52 51 57 75 104 117
283 300 289 231 193 181 154 148 134 118 110 102 121 142 158 168 182 180 173 160 165 172 162 146 140 132 134 126 110 76 59 52 56 65 64 60 51 45 57 52 49 61 99
272 293 304 233 200 188 164 152 139 129 117 111 113 122 149 151 187 184 176 160 157 160 159 156 164 158 147 132 111 80 54 47 47 63 74 60 30 11 30 50 38 29 56
253 265 307 237 218 206 186 168 148 134 131 132 131 121 127 142 170 165 164 162 156 147 148 165 170 158 155 145 123 90 36 34 63 61 43 135 322 320 333 356 26 27 45
232 249 308 256 222 217 219 206 179 170 160 152 136 143 156 152 157 146 141 151 164 160 159 170 172 162 154 153 150 135 95 74 107 9 273 220 215 233 212 245 272 260 344
256 250 267 260 233 227 236 237 211 185 175 166 175 173 176 170 164 164 157 167 169 162 157 161 165 177 169 181 194 182 183 195 166 304 240 220 235 230 222 255 274 246 253
264 254 249 252 232 226 219 212 184 173 176 187 193 190 201 198 184 183 179 172 179 177 180 182 184 180 183 188 205 209 193 201 187 208 243 232 238 242 236 246 261 254 246
263 261 252 255 243 226 211 204 199 198 203 208 210 216 214 207 197 198 193 181 182 190 189 192 191 195 190 189 199 245 273 219 197 192 207 220 243 248 245 247 256 246 233
267 265 263 259 256 233 223 212 206 203 206 202 205 210 218 214 208 206 200 193 190 199 203 201 200 197 199 200 199 203 208 219 231 210 220 219 229 244 254 252 256 251 240
272 270 262 258 263 257 237 223 219 211 204 206 211 212 218 220 215 214 210 207 200 205 214 213 211 209 207 209 208 206 206 203 203 208 222 225 238 244 250 255 251 245 246